Location: ???????
(55.4362°N, 38.1183°E)
Time: 14:15:49
(UTC+00:00)

Cosmos 372 Rocket - Pass Details

Date: 21 October 2021
Orbit: 738 x 768 km, 74.1° (Epoch: 04 December)

Event Time Altitude Azimuth Distance (km) Brightness Sun altitude
Rises 16:34:00 0° 263° (W) 3,177 8.5 -20.6°
Reaches altitude 10° 16:37:05 10° 282° (WNW) 2,254 7.6 -21.0°
Maximum altitude 16:40:36 18° 326° (NNW) 1,751 6.4 -21.5°
Drops below altitude 10° 16:44:07 10° 10° (N) 2,260 6.5 -22.0°
Enters shadow 16:46:54 - 28° (NNE) 3,085 7.0 -22.4°
